Content
SEND FEEDBACK

Daily
Averages
Monthly
Summary
United States of America

SAN RAFAEL, CALIFORNIA


Home > North America > United States > California
Elevation: 30 feet     Latitude: 37 58N     Longitude: 122 32W

WEATHER
 
SELECT A DAY
Number of Records: 163,970;   Date Range: 9/27/07 - 7/9/14
 
SHARE

PRINT THIS DATA

[ ← Previous Day ]
WEATHER ALMANAC - FEBRUARY 9, 2013
[ Next Day → ]
[ °C ]   °F
Weather ElementAverageHighLow
Temperature46.1 °F59 °F (1:35 pm)32 °F (11:35 pm)
Dewpoint32.5 °F39.2 °F (5:35 pm)24.8 °F (1:35 am)
Humidity63.2 %100 % (9:55 pm)29 % (1:35 pm)
Barometer30.06 in30.11 in (11:35 pm)30.02 in (12:35 am)
Wind Speed3.7 mph12.7 mph (12:35 am)
Weather ElementAverage
Visibility10 mi
Wind DirectionSSE (148.5 °)

Weather ElementTotal
Precipitation---
Heating Degree Days19.5 (Base 65)
Averaged from 71 records on February 9, 2013
WEATHER CONDITIONS BREAKOUT
WIND DIRECTION BREAKOUT
WEATHER BY HOUR - FEBRUARY 9, 2013
[ °C ]   °F
Local TimeTemperatureDewpointHumidityBarometerVisibilityWind DirectionWind SpeedGust SpeedPrecipitationEventsConditions
12:35 AM48.2 °F32.0 °F54 %30.02 in10.0 miNW (310°)12.7 mph
12:55 AM48.2 °F32.0 °F54 %30.02 in10.0 miNW (310°)11.5 mph
1:15 AM48.2 °F28.4 °F46 %30.02 in10.0 miNW (310°)9.2 mph
1:35 AM50.0 °F24.8 °F37 %30.02 in10.0 miWNW (290°)9.2 mph
1:55 AM48.2 °F28.4 °F46 %30.02 in10.0 miNW (310°)9.2 mph
2:15 AM46.4 °F32.0 °F57 %30.02 in10.0 miNW (310°)9.2 mph
2:35 AM44.6 °F32.0 °F61 %30.02 in10.0 miESE (120°)4.6 mph
2:55 AM42.8 °F33.8 °F70 %30.03 in10.0 miENE (60°)3.5 mph
3:15 AM41.0 °F32.0 °F70 %30.03 in10.0 miNorth (350°)8.1 mph
3:35 AM41.0 °F32.0 °F70 %30.03 in10.0 miCalm
3:55 AM41.0 °F33.8 °F76 %30.03 in10.0 miWNW (300°)8.1 mph
4:15 AM42.8 °F32.0 °F66 %30.02 in10.0 miCalm
4:35 AM41.0 °F32.0 °F70 %30.03 in10.0 miSW (220°)4.6 mph
4:55 AM42.8 °F32.0 °F66 %30.03 in10.0 miNW (320°)8.1 mph
5:15 AM44.6 °F32.0 °F61 %30.03 in10.0 miNW (320°)12.7 mph
5:35 AM44.6 °F32.0 °F61 %30.03 in10.0 miNNW (330°)9.2 mph
5:55 AM42.8 °F32.0 °F66 %30.03 in10.0 miCalm
6:15 AM39.2 °F32.0 °F75 %30.03 in10.0 miCalm
6:35 AM39.2 °F32.0 °F75 %30.04 in10.0 miCalm
6:55 AM37.4 °F32.0 °F81 %30.04 in10.0 miCalm
7:15 AM35.6 °F32.0 °F87 %30.05 in10.0 miNorth (360°)3.5 mphClear
7:35 AM35.6 °F32.0 °F87 %30.05 in10.0 miCalmClear
7:55 AM35.6 °F32.0 °F87 %30.06 in10.0 miCalmClear
8:15 AM37.4 °F33.8 °F87 %30.07 in10.0 miCalmClear
8:35 AM39.2 °F33.8 °F81 %30.06 in10.0 miCalmClear
8:55 AM42.8 °F33.8 °F70 %30.07 in10.0 miCalmClear
9:15 AM46.4 °F35.6 °F66 %30.07 in10.0 miNorth (350°)5.8 mphClear
9:35 AM46.4 °F35.6 °F66 %30.08 in10.0 miNorth (350°)11.5 mphClear
9:55 AM48.2 °F35.6 °F62 %30.08 in10.0 miNorth (10°)6.9 mphClear
10:15 AM48.2 °F35.6 °F62 %30.08 in10.0 miNorth (10°)4.6 mphClear
10:35 AM50.0 °F32.0 °F50 %30.08 in10.0 miSW (230°)3.5 mphClear
10:55 AM51.8 °F32.0 °F47 %30.08 in10.0 miSSW (210°)3.5 mphClear
11:15 AM51.8 °F28.4 °F41 %30.08 in10.0 miCalmClear
11:35 AM53.6 °F30.2 °F41 %30.07 in10.0 miSSE (160°)3.5 mphClear
11:55 AM55.4 °F26.6 °F33 %30.07 in10.0 miSW (220°)4.6 mphClear
12:15 PM55.4 °F26.6 °F33 %30.07 in10.0 miCalmClear
12:35 PM55.4 °F26.6 °F33 %30.06 in10.0 miCalmClear
12:55 PM57.2 °F26.6 °F31 %30.06 in10.0 miEast (100°)3.5 mphClear
1:15 PM57.2 °F26.6 °F31 %30.05 in10.0 miCalmClear
1:35 PM59.0 °F26.6 °F29 %30.05 in10.0 miSSW (200°)3.5 mphClear
1:55 PM59.0 °F26.6 °F29 %30.04 in10.0 miSouth (170°)4.6 mphClear
2:15 PM59.0 °F26.6 °F29 %30.04 in10.0 miSSE (150°)4.6 mphClear
2:35 PM59.0 °F28.4 °F31 %30.03 in10.0 miSSE (150°)4.6 mphClear
2:55 PM59.0 °F26.6 °F29 %30.03 in10.0 miSW (220°)5.8 mphClear
3:15 PM59.0 °F28.4 °F31 %30.04 in10.0 miSSE (160°)4.6 mphClear
3:35 PM59.0 °F30.2 °F34 %30.04 in10.0 miSW (220°)10.4 mphClear
3:55 PM59.0 °F33.8 °F39 %30.04 in10.0 miWest (260°)6.9 mphClear
4:15 PM57.2 °F35.6 °F44 %30.04 in10.0 miNNW (330°)3.5 mphClear
4:35 PM57.2 °F35.6 °F44 %30.05 in10.0 miNNW (340°)5.8 mphClear
4:55 PM55.4 °F37.4 °F51 %30.04 in10.0 miNNW (340°)3.5 mphClear
5:15 PM53.6 °F35.6 °F51 %30.04 in10.0 miCalmClear
5:35 PM50.0 °F39.2 °F66 %30.05 in10.0 miCalmClear
5:55 PM46.4 °F37.4 °F71 %30.06 in10.0 miNorth (350°)6.9 mphClear
6:15 PM46.4 °F37.4 °F71 %30.07 in10.0 miCalmClear
6:35 PM44.6 °F37.4 °F76 %30.07 in10.0 miCalmClear
6:55 PM44.6 °F37.4 °F76 %30.08 in10.0 miCalmClear
7:15 PM42.8 °F37.4 °F81 %30.08 in10.0 miCalmClear
7:35 PM42.8 °F35.6 °F76 %30.09 in10.0 miCalmClear
7:55 PM41.0 °F35.6 °F81 %30.09 in10.0 miSouth (170°)3.5 mphClear
8:15 PM39.2 °F35.6 °F87 %30.09 in10.0 miCalmClear
8:35 PM39.2 °F35.6 °F87 %30.09 in10.0 miCalmClear
8:55 PM39.2 °F35.6 °F87 %30.10 in10.0 miCalmClear
9:15 PM39.2 °F32.0 °F75 %30.10 in10.0 miSW (230°)3.5 mphClear
9:35 PM39.2 °F33.8 °F81 %30.10 in10.0 miCalmClear
9:55 PM35.6 °F35.6 °F100 %30.10 in10.0 miCalmClear
10:15 PM37.4 °F35.6 °F93 %30.10 in10.0 miNW (320°)3.5 mphClear
10:35 PM37.4 °F35.6 °F93 %30.10 in10.0 miCalmClear
10:55 PM35.6 °F33.8 °F93 %30.10 in10.0 miSW (220°)3.5 mphClear
11:15 PM37.4 °F35.6 °F93 %30.10 in10.0 miSouth (190°)3.5 mphClear
11:35 PM32.0 °F32.0 °F100 %30.11 in10.0 miNorth (360°)4.6 mphClear
11:55 PM32.0 °F32.0 °F100 %30.11 in10.0 miWNW (300°)3.5 mphClear
Hourly data recorded from KDVO, located miles away from San Rafael, California







STORIES FROM OUR PARTNERS